Погода в Орловском

Россия / Забайкальский край     51°02′13″N   114°50′59″E
темп.,
°C
ветер,
м/с
пор.,
м/с
влажн.,
%
обл.,
%
осадки,
мм/ч
давл.,
гПа
погр.,
м
15 июня, вт
вт1500:00+13сз3351100 0.0 100337
03:00+12зсз31058100 0.0 1003206
06:00+12сз396293 0.0 1003253
09:00+14сз6958100 0.0 1003575
12:00+19сз5541100 0.0 10031660
15:00+21сз5534100 0.0 10021908
18:00+21сз4532100 0.0 10012019
21:00+17зсз3347100 0.0 100248
16 июня, ср
ср1600:00+15зсз2245100 0.0 100214
03:00+14зсз2347100 0.0 100243
06:00+12з4664100 0.0 1003349
09:00+11сз71170100 0.4 1003574
12:00+11ссз7974100 0.4 1003831
15:00+10сз91484100 2.4 1002700
18:00+10сз91485100 1.3 1001620
21:00+10сз91680100 1.9 1000758
17 июня, чт
чт1700:00+8сз121984100 2.3 998641
03:00+8сз121984100 3.8 996620
06:00+7сз132089100 2.2 993860
09:00+10ссз122187100 8.8 9901765
12:00+10ссз122387100 7.1 9891987
15:00+10ссз132388100 13.0 9901682
18:00+10ссз112289100 4.1 9911743
21:00+10ссз122087100 7.2 9921440
18 июня, пт
пт1800:00+10ссз101687100 1.3 9931058
03:00+9сз91592100 3.9 993910
06:00+9ссз81492100 3.1 994775
09:00+9сз71293100 3.8 995575
12:00+11сз7985100 0.6 996667
15:00+13ссз7981100 1.8 9951179
18:00+12с5108512 1.9 997436
21:00+11с61188100 3.1 997519
19 июня, сб
сб1900:00+10с61190100 0.8 998606
03:00+10с71393100 2.4 998648
06:00+11ссз51190100 1.9 998484
09:00+11ссз61289100 4.5 999568
12:00+11ссз61291100 1.1 1000597
15:00+13с5990100 1.8 1001598
18:00+13ссв3691100 0.2 1003446
21:00+12ссз3395100 0.2 100458